Riverside, CA

10:32 PM PDT on August 18, 2017 (GMT -0700)
Riverside Municipal

Weather History for KRAL - December, 2012

Change the Weather History Date:

Friday, December 7, 2012

  Actual Average Record
Temperature  
Mean Temperature 62 °F 55 °F  
Max Temperature 79 °F 67 °F 90 °F (1938)
Min Temperature 45 °F 43 °F 22 °F (1998)
Degree Days  
Heating Degree Days 3 10  
Month to date heating degree days 23 66  
Since 1 July heating degree days 135 266  
Cooling Degree Days 0 0  
Month to date cooling degree days 0 0  
Year to date cooling degree days 2229 1754  
Growing Degree Days 12 (Base 50)    
Moisture  
Dew Point 48 °F    
Average Humidity 61    
Maximum Humidity 93    
Minimum Humidity 29    
Precipitation  
Precipitation 0.00 in 0.04 in 1.73 in (1992)
Month to date precipitation 0.12 0.26  
Year to date precipitation 3.50 11.13  
Since 1 July precipitation 0.65  
Snow  
Snow 0.00 in - - ()
Month to date snowfall 0.0  
Year to date snowfall 0.0  
Snow Depth 0.00 in    
Sea Level Pressure  
Sea Level Pressure 29.91 in    
Wind  
Wind Speed 3 mph (NE)    
Max Wind Speed 13 mph    
Max Gust Speed 23 mph    
Visibility 6 miles    
Events      
T = Trace of Precipitation, MM = Missing Value Source: NWS Daily Summary

Daily Weather History Graph

Daily Weather History Graph

Search for Another Location

Airport or City:

Trip Planner

Search our weather history database for the weather conditions in past years. The results will help you decide how hot, cold, wet, or windy it might be!

Date:

Astronomy

Dec. 07, 2012 Rise Set
Actual Time 6:42 AM PST 4:40 PM PST
Civil Twilight 6:14 AM PST 5:08 PM PST
Nautical Twilight 5:43 AM PST 5:39 PM PST
Astronomical Twilight 5:13 AM PST 6:09 PM PST
Moon 12:21 AM PST (12/7) 12:26 PM PST (12/7)
Length of Visible Light 10h 53m
Length of Day
9h 58m
Last Quarter, 37% of the Moon is Illuminated
Dec 7
Last Quarter
Dec 13
New
Dec 19
First Quarter
Dec 28
Full
Jan 4
Last Quarter

Hourly Weather History & Observations

Time (PST) Temp. Dew Point Humidity Pressure Visibility Wind Dir Wind Speed Gust Speed Precip Events Conditions
12:53 AM 52.0 °F 48.9 °F 89% 29.91 in 3.0 mi Calm Calm - N/A   Clear
1:22 AM 50.0 °F 48.2 °F 94% 29.94 in 2.5 mi Calm Calm - N/A   Clear
1:40 AM 50.0 °F 48.2 °F 94% 29.93 in 3.0 mi East 3.5 mph - N/A   Clear
1:53 AM 50.0 °F 48.0 °F 93% 29.91 in 3.0 mi Calm Calm - N/A   Clear
2:53 AM 51.1 °F 48.9 °F 92% 29.89 in 3.0 mi NNE 4.6 mph - N/A   Clear
3:11 AM 50.0 °F 48.2 °F 94% 29.92 in 2.5 mi NNE 3.5 mph - N/A   Clear
3:32 AM 50.0 °F 48.2 °F 94% 29.91 in 3.0 mi NE 3.5 mph - N/A   Clear
3:53 AM 48.9 °F 46.9 °F 93% 29.89 in 3.0 mi ENE 4.6 mph - N/A   Clear
4:53 AM 50.0 °F 46.9 °F 89% 29.89 in 4.0 mi NE 6.9 mph - N/A   Clear
5:53 AM 48.9 °F 46.0 °F 90% 29.91 in 4.0 mi NNW 4.6 mph - N/A   Clear
6:32 AM 46.4 °F 44.6 °F 93% 29.95 in 2.5 mi Calm Calm - N/A   Clear
6:53 AM 46.0 °F 44.1 °F 93% 29.93 in 1.2 mi Calm Calm - N/A   Clear
7:15 AM 46.4 °F 44.6 °F 93% 29.96 in 3.0 mi Calm Calm - N/A   Clear
7:53 AM 52.0 °F 48.0 °F 86% 29.93 in 3.0 mi Calm Calm - N/A   Clear
8:53 AM 55.9 °F 48.0 °F 75% 29.94 in 5.0 mi NNE 3.5 mph - N/A   Haze
9:53 AM 62.1 °F 48.9 °F 62% 29.94 in 6.0 mi Calm Calm - N/A   Haze
10:53 AM 69.1 °F 46.9 °F 45% 29.92 in 8.0 mi Calm Calm - N/A   Clear
11:53 AM 75.9 °F 46.0 °F 35% 29.90 in 10.0 mi Calm Calm - N/A   Clear
12:53 PM 77.0 °F 42.1 °F 29% 29.88 in 10.0 mi Variable 5.8 mph 18.4 mph N/A   Clear
1:53 PM 73.9 °F 48.0 °F 40% 29.87 in 9.0 mi West 9.2 mph - N/A   Clear
2:53 PM 73.9 °F 52.0 °F 46% 29.87 in 9.0 mi West 10.4 mph - N/A   Clear
3:53 PM 71.1 °F 51.1 °F 49% 29.87 in 8.0 mi West 6.9 mph - N/A   Clear
5:53 PM 64.9 °F 52.0 °F 63% 29.89 in 8.0 mi Calm Calm - N/A   Clear
6:53 PM 61.0 °F 52.0 °F 72% 29.91 in 7.0 mi Calm Calm - N/A   Clear
7:53 PM 59.0 °F 51.1 °F 75% 29.92 in 8.0 mi ESE 3.5 mph - N/A   Clear
8:53 PM 57.0 °F 50.0 °F 77% 29.93 in 7.0 mi ESE 3.5 mph - N/A   Clear
9:53 PM 55.9 °F 48.9 °F 77% 29.92 in 7.0 mi East 3.5 mph - N/A   Clear
10:53 PM 53.1 °F 48.0 °F 83% 29.91 in 7.0 mi Calm Calm - N/A   Clear
11:53 PM 53.1 °F 43.0 °F 69% 29.91 in 10.0 mi NNE 4.6 mph - N/A   Clear